User: anonymous   Login
Location: Nianha
(10.8000°N, 4.6333°W)
Time: 07:21:40
(UTC+00:00)
Language:

Milstar 3 Cent rocket - Orbit

View from above orbital plane
View from above orbital plane
View from above satellite
View from above satellite

Ground track
Ground track

The orbit data is extracted from the following two-line orbital elements,

1 25725U 99023B   20049.76827114 +.00000058 +00000-0 +26194-5 0  9995
2 25725 028.3311 077.8367 2383389 249.9279 083.0431 09.67238943033238
Epoch (UTC): 18 February 2020 18:26:18
Eccentricity: 0.2383389
inclination: 28.3311°
perigee height: 709 km
apogee height: 5144 km
right ascension of ascending node: 77.8367°
argument of perigee: 249.9279°
revolutions per day: 9.67238943
mean anomaly at epoch: 83.0431°
orbit number at epoch: 3323

The dashed part of the orbit path shows where the satellite is in the earth's shadow,  

DLR